• In Portugal
  • List of Countries
  • For 7 days
  • Water Temperature
  • Satellite Maps
  • Weather Map
  • Weather Widgets
  • user-avatar
    Login

    Hourly Weather Myitkyina

    Today, 16 December, Saturday

    Time Temperature Precipitation Wind Pressure Humidity
    00:00 +16°C° 0 mm 1 mps 745 mmHg 66%
    01:00 +15°C° 0 mm 1 mps 745 mmHg 66%
    02:00 +15°C° 0 mm 1 mps 745 mmHg 66%
    03:00 +15°C° 0 mm 1 mps 745 mmHg 66%
    04:00 +15°C° 0 mm 1 mps 745 mmHg 66%
    05:00 +14°C° 0 mm 1 mps 745 mmHg 65%
    06:00 +14°C° 0 mm 1 mps 745 mmHg 65%
    07:00 +18°C° 0 mm 1 mps 746 mmHg 57%
    08:00 +19°C° 0 mm 0 mps 746 mmHg 49%
    09:00 +22°C° 0 mm 0 mps 747 mmHg 41%
    10:00 +24°C° 0 mm 0 mps 746 mmHg 37%
    11:00 +25°C° 0 mm 0 mps 745 mmHg 33%
    12:00 +27°C° 0 mm 0 mps 745 mmHg 30%
    13:00 +27°C° 0 mm 0 mps 744 mmHg 32%
    14:00 +27°C° 0 mm 0 mps 744 mmHg 34%
    15:00 +26°C° 0 mm 0 mps 744 mmHg 36%
    16:00 +23°C° 0 mm 0 mps 744 mmHg 43%
    17:00 +21°C° 0 mm 0 mps 744 mmHg 51%
    18:00 +18°C° 0 mm 0 mps 745 mmHg 58%
    19:00 +19°C° 0 mm 1 mps 745 mmHg 59%
    20:00 +18°C° 0 mm 1 mps 746 mmHg 60%
    21:00 +18°C° 0 mm 1 mps 746 mmHg 61%
    22:00 +18°C° 0 mm 1 mps 747 mmHg 62%
    23:00 +16°C° 0 mm 1 mps 747 mmHg 62%

    Tomorrow, 17 December, Sunday

    Time Temperature Precipitation Wind Pressure Humidity
    00:00 +16°C° 0 mm 1 mps 747 mmHg 62%
    01:00 +16°C° 0 mm 1 mps 747 mmHg 62%
    02:00 +15°C° 0 mm 1 mps 746 mmHg 62%
    03:00 +15°C° 0 mm 1 mps 746 mmHg 62%
    04:00 +15°C° 0 mm 1 mps 746 mmHg 62%
    05:00 +15°C° 0 mm 1 mps 747 mmHg 61%
    06:00 +14°C° 0 mm 1 mps 747 mmHg 61%
    07:00 +18°C° 0 mm 1 mps 747 mmHg 53%
    08:00 +19°C° 0 mm 0 mps 748 mmHg 46%
    09:00 +22°C° 0 mm 0 mps 748 mmHg 38%
    10:00 +24°C° 0 mm 0 mps 747 mmHg 34%
    11:00 +26°C° 0 mm 0 mps 747 mmHg 30%
    12:00 +28°C° 0 mm 0 mps 746 mmHg 26%
    13:00 +27°C° 0 mm 0 mps 745 mmHg 29%
    14:00 +27°C° 0 mm 0 mps 745 mmHg 31%
    15:00 +26°C° 0 mm 0 mps 744 mmHg 33%
    16:00 +23°C° 0 mm 0 mps 745 mmHg 39%
    17:00 +20°C° 0 mm 0 mps 745 mmHg 45%
    18:00 +18°C° 0 mm 0 mps 745 mmHg 51%
    19:00 +19°C° 0 mm 1 mps 746 mmHg 51%
    20:00 +18°C° 0 mm 1 mps 746 mmHg 51%
    21:00 +18°C° 0 mm 1 mps 747 mmHg 51%
    22:00 +16°C° 0 mm 1 mps 747 mmHg 51%
    23:00 +16°C° 0 mm 1 mps 746 mmHg 51%

    Day after tomorrow, 18 December, Monday

    Time Temperature Precipitation Wind Pressure Humidity
    00:00 +15°C° 0 mm 1 mps 746 mmHg 52%
    01:00 +15°C° 0 mm 1 mps 746 mmHg 52%
    02:00 +15°C° 0 mm 1 mps 746 mmHg 52%
    03:00 +14°C° 0 mm 1 mps 746 mmHg 52%
    04:00 +14°C° 0 mm 1 mps 746 mmHg 52%
    05:00 +14°C° 0 mm 1 mps 746 mmHg 52%
    06:00 +14°C° 0 mm 1 mps 746 mmHg 51%
    07:00 +18°C° 0 mm 1 mps 747 mmHg 45%
    08:00 +19°C° 0 mm 0 mps 747 mmHg 39%
    09:00 +21°C° 0 mm 0 mps 748 mmHg 33%
    10:00 +23°C° 0 mm 0 mps 747 mmHg 30%
    11:00 +25°C° 0 mm 0 mps 746 mmHg 28%
    12:00 +27°C° 0 mm 0 mps 746 mmHg 25%
    13:00 +27°C° 0 mm 0 mps 745 mmHg 27%
    14:00 +26°C° 0 mm 0 mps 744 mmHg 30%
    15:00 +26°C° 0 mm 0 mps 744 mmHg 32%
    16:00 +23°C° 0 mm 0 mps 744 mmHg 39%
    17:00 +20°C° 0 mm 0 mps 745 mmHg 46%
    18:00 +17°C° 0 mm 0 mps 745 mmHg 53%
    19:00 +16°C° 0 mm 0 mps 746 mmHg 53%
    20:00 +18°C° 0 mm 1 mps 746 mmHg 53%
    21:00 +16°C° 0 mm 1 mps 747 mmHg 54%
    22:00 +16°C° 0 mm 1 mps 746 mmHg 54%
    23:00 +15°C° 0 mm 1 mps 746 mmHg 54%

    19 December, Tuesday

    Time Temperature Precipitation Wind Pressure Humidity
    00:00 +15°C° 0 mm 1 mps 746 mmHg 54%
    01:00 +15°C° 0 mm 1 mps 746 mmHg 54%
    02:00 +14°C° 0 mm 1 mps 746 mmHg 54%
    03:00 +14°C° 0 mm 1 mps 746 mmHg 54%
    04:00 +14°C° 0 mm 1 mps 746 mmHg 55%
    05:00 +14°C° 0 mm 1 mps 746 mmHg 55%
    06:00 +13°C° 0 mm 1 mps 747 mmHg 55%
    07:00 +16°C° 0 mm 1 mps 747 mmHg 49%
    08:00 +18°C° 0 mm 0 mps 747 mmHg 42%
    09:00 +21°C° 0 mm 0 mps 748 mmHg 36%
    10:00 +23°C° 0 mm 0 mps 747 mmHg 33%
    11:00 +25°C° 0 mm 0 mps 746 mmHg 29%
    12:00 +27°C° 0 mm 0 mps 746 mmHg 26%
    13:00 +27°C° 0 mm 0 mps 745 mmHg 28%
    14:00 +27°C° 0 mm 0 mps 745 mmHg 30%
    15:00 +26°C° 0 mm 0 mps 744 mmHg 33%
    16:00 +23°C° 0 mm 0 mps 745 mmHg 39%
    17:00 +20°C° 0 mm 0 mps 745 mmHg 46%
    18:00 +20°C° 0 mm 1 mps 746 mmHg 52%
    19:00 +19°C° 0 mm 1 mps 746 mmHg 54%
    20:00 +18°C° 0 mm 1 mps 747 mmHg 55%
    21:00 +18°C° 0 mm 1 mps 747 mmHg 57%
    22:00 +16°C° 0 mm 1 mps 747 mmHg 57%
    23:00 +16°C° 0 mm 1 mps 747 mmHg 58%

    20 December, Wednesday

    Time Temperature Precipitation Wind Pressure Humidity
    00:00 +15°C° 0 mm 1 mps 747 mmHg 58%
    01:00 +15°C° 0 mm 1 mps 747 mmHg 58%
    02:00 +15°C° 0 mm 1 mps 747 mmHg 58%
    03:00 +15°C° 0 mm 1 mps 747 mmHg 58%
    04:00 +14°C° 0 mm 1 mps 747 mmHg 58%
    05:00 +14°C° 0 mm 1 mps 747 mmHg 58%
    06:00 +14°C° 0 mm 1 mps 748 mmHg 58%
    07:00 +18°C° 0 mm 1 mps 748 mmHg 51%
    08:00 +21°C° 0 mm 1 mps 749 mmHg 45%
    09:00 +24°C° 0 mm 1 mps 749 mmHg 38%
    10:00 +26°C° 0 mm 1 mps 748 mmHg 35%
    11:00 +27°C° 0 mm 1 mps 748 mmHg 32%
    12:00 +29°C° 0 mm 1 mps 747 mmHg 29%
    13:00 +29°C° 0 mm 1 mps 746 mmHg 31%
    14:00 +27°C° 0 mm 0 mps 746 mmHg 34%
    15:00 +27°C° 0 mm 0 mps 745 mmHg 37%
    16:00 +24°C° 0 mm 0 mps 745 mmHg 44%
    17:00 +21°C° 0 mm 0 mps 746 mmHg 52%
    18:00 +20°C° 0 mm 1 mps 746 mmHg 59%
    19:00 +20°C° 0 mm 1 mps 746 mmHg 61%
    20:00 +19°C° 0 mm 1 mps 747 mmHg 62%
    21:00 +19°C° 0 mm 1 mps 747 mmHg 64%
    22:00 +18°C° 0 mm 1 mps 747 mmHg 65%
    23:00 +18°C° 0 mm 1 mps 747 mmHg 66%

    21 December, Thursday

    Time Temperature Precipitation Wind Pressure Humidity
    00:00 +16°C° 0 mm 1 mps 747 mmHg 66%
    01:00 +16°C° 0 mm 1 mps 747 mmHg 66%
    02:00 +16°C° 0 mm 1 mps 746 mmHg 66%
    03:00 +16°C° 0 mm 1 mps 746 mmHg 66%
    04:00 +15°C° 0 mm 1 mps 747 mmHg 65%
    05:00 +15°C° 0 mm 1 mps 747 mmHg 65%
    06:00 +15°C° 0 mm 1 mps 747 mmHg 64%
    07:00 +19°C° 0 mm 1 mps 747 mmHg 57%
    08:00 +21°C° 0 mm 1 mps 748 mmHg 49%
    09:00 +22°C° 0 mm 0 mps 748 mmHg 42%
    10:00 +24°C° 0 mm 0 mps 747 mmHg 39%
    11:00 +26°C° 0 mm 0 mps 746 mmHg 36%
    12:00 +28°C° 0 mm 0 mps 745 mmHg 32%
    13:00 +27°C° 0 mm 0 mps 745 mmHg 34%
    14:00 +27°C° 0 mm 0 mps 744 mmHg 36%
    15:00 +26°C° 0 mm 0 mps 743 mmHg 37%
    16:00 +24°C° 0 mm 0 mps 744 mmHg 45%
    17:00 +21°C° 0 mm 0 mps 744 mmHg 53%
    18:00 +18°C° 0 mm 0 mps 744 mmHg 61%
    19:00 +18°C° 0 mm 0 mps 744 mmHg 62%
    20:00 +17°C° 0 mm 0 mps 745 mmHg 62%
    21:00 +16°C° 0 mm 0 mps 745 mmHg 63%
    22:00 +18°C° 0 mm 1 mps 745 mmHg 63%
    23:00 +18°C° 0 mm 1 mps 745 mmHg 64%
    Show more